STARLINK-5726, 55608

Orbit data source: Space-Track

STARLINK-5726, 55608 is a payload satellite owned by SpaceX/Seattle (US) in LEO that was launched on Sun, 12 Feb 2023 UTC via an FALCON 9 launch vehicle from the Air Force Eastern Test Range (AFETR). Payload-class satellites include a variety of spacecraft equipped with specific instruments for various scientific and technological missions. These include communications satellites like Starlink; space stations such as the ISS; scientific satellites like the Hubble; Earth observation satellites from companies like Planet Labs, Umbra, and HawkEye 360; GPS; miniature CubeSats for education and research; and military/defense satellites.

Loading next visibility...
Identifier
55608, 2023-020AR
Orbit
LEO
Country
Flag of USUS
Related business
Manufacturer
SpaceX/Seattle
Mission
Operational Commercial Communications
Bus & Motor
STARLINK, Unknown motor
Mass
305 kg wet, ~290 kg dry
Launch date (UTC)
2023-02-12 (3 years ago)
Launch vehicle
FALCON 9
Launch site
Air Force Eastern Test Range (AFETR)
Object type
Payload
Rocket body
Debris
Shape & HBR
Box + 1 Pan, 10.1 m
Radar Cross Section
13.562 m², Large (>1 m²)

Expand to show TLE details & history
Last TLE update: 15 hours ago

TLE from 15 hours ago
0 STARLINK-5726
1 55608U 23020AR  25340.52837280  .00000372  00000-0  42633-4 0  9994
2 55608  43.0030 138.0320 0001677 285.8118  74.2540 15.02537243155057
Epoch: 2025-12-06T12:40Z
TLE epoch observation values (Epoch: 2025-12-06T12:40:51.409Z)
Latitude
Longitude
-127.73702°
Altitude
558.538 km
Speed
7.584 km/s
True Right ascension
09h 12m 07s
True Declination
0° 00' 00"
Sunlit
Object was in partial shadow at epoch
Visualization orbit readout
Latitude
Unknown
Longitude
Unknown
Altitude
Unknown
Speed
Unknown
Apparent Right ascension
Unknown
Apparent Declination
Unknown
Sunlit
N/A
Visualization observer readout
Local Sidereal Time
02:09:40
Azimuth
Unknown
Elevation
Unknown
Doppler factor
Unknown
Orbital elements
Apogee altitude
562.163 km
Perigee altitude
559.835 km
Semi-major axis
6,939.136 km
Eccentricity
0.00017
Inclination
43.003°
RAAN
138.032°
Arg. of periapsis
285.8118°
True anomaly
74.2725°
Mean anomaly
74.254°
Eccentric anomaly
74.26325°
Mean motion
3.75478 °/min
Orbital period
95.88 mins
BSTAR
0.000042633
Loading maneuver chart data...
Computing Atmospheric mass density...
Loading historical data...
Loading historical data...
Loading historical data...
Loading historical data...
Loading historical data...
Loading historical data...
Loading historical data...

Documentation

Showing up to 5 results
|